Location: Newark
(34.9500°N, 139.9667°E)
Time: 22:33:53
(UTC+00:00)

Altair - Pass Details

Date: 13 December 2019
Orbit: 1502 x 1682 km, 47.2° (Epoch: 22 January)

Event Time Altitude Azimuth Distance (km) Brightness Sun altitude
Exits shadow 20:16:52 10° 247° (WSW) 3,669 9.0 -16.4°
Reaches altitude 10° 20:17:12 10° 245° (WSW) 3,656 9.0 -16.4°
Maximum altitude 20:18:14 10° 238° (WSW) 3,641 9.1 -16.2°
Drops below altitude 10° 20:19:17 10° 232° (SW) 3,661 9.2 -16.0°
Sets 20:26:39 0° 193° (SSW) 4,674 10.1 -14.5°
